STARLINK-11518 [DTC]

Last updated on Fri Jan 31 2025 00:02:04 GMT+0000 (Coordinated Universal Time)

1 62462U 24254A 25030.35228049 -.00000655 00000+0 -89078-6 0 9995 2 62462 43.0002 136.2358 0002015 270.6610 89.4029 15.77866446 5954
UTC large
Height (km)
Speed (km/s)
/
Latitude / Longitude
Inclination (degrees)
Orbital Period (minutes)
Azimuth
Elevation
Range (km)
Doppler Factor

Next 0 passes for location: London (51.5072 / 0.1276)

Sorry there are no passes over London.